Time,TemperatureF,DewpointF,PressureIn,WindDirection,WindDirectionDegrees,WindSpeedMPH,WindSpeedGustMPH,Humidity,HourlyPrecipIn,Conditions,Clouds,dailyrainin,SoftwareType,DateUTC
2013-04-29 00:01:00,43.1,99.9,28.47,WSW,247,0.0,0.0,0,0.00,CLR,SKC,0.00,WeatherDisplay:10.37,2013-04-29 04:01:00,
2013-04-29 00:03:00,44.1,99.9,28.47,WSW,247,0.0,0.0,0,0.00,CLR,SKC,0.00,WeatherDisplay:10.37,2013-04-29 04:03:00,
2013-04-29 00:08:00,43.1,99.9,28.47,WSW,247,0.0,0.0,0,0.00,CLR,SKC,0.00,WeatherDisplay:10.37,2013-04-29 04:08:00,
2013-04-29 00:13:00,44.1,99.9,28.47,WSW,247,0.0,0.0,0,0.00,CLR,SKC,0.00,WeatherDisplay:10.37,2013-04-29 04:13:00,
2013-04-29 00:18:00,43.1,99.9,28.47,WSW,247,0.0,0.0,0,0.00,CLR,SKC,0.00,WeatherDisplay:10.37,2013-04-29 04:18:00,
2013-04-29 00:23:00,44.1,99.9,28.48,WSW,247,0.0,0.0,0,0.00,CLR,SKC,0.00,WeatherDisplay:10.37,2013-04-29 04:23:00,
2013-04-29 00:28:00,44.1,99.9,28.48,WSW,247,0.0,0.0,0,0.00,CLR,SKC,0.00,WeatherDisplay:10.37,2013-04-29 04:28:00,
2013-04-29 00:33:00,44.1,99.9,28.48,WSW,247,0.0,0.0,0,0.00,CLR,SKC,0.00,WeatherDisplay:10.37,2013-04-29 04:33:00,
2013-04-29 00:38:00,44.1,99.9,28.48,WSW,247,0.0,0.0,0,0.00,CLR,SKC,0.00,WeatherDisplay:10.37,2013-04-29 04:38:00,
2013-04-29 00:43:00,44.1,99.9,28.48,WSW,247,0.0,0.0,0,0.00,CLR,SKC,0.00,WeatherDisplay:10.37,2013-04-29 04:43:00,
2013-04-29 00:48:00,44.1,99.9,28.48,WSW,247,0.0,0.0,0,0.00,CLR,SKC,0.00,WeatherDisplay:10.37,2013-04-29 04:48:00,
2013-04-29 00:53:00,44.1,99.9,28.48,WSW,247,0.0,0.0,0,0.00,CLR,SKC,0.00,WeatherDisplay:10.37,2013-04-29 04:53:00,
2013-04-29 00:58:00,44.1,99.9,28.48,WSW,247,0.0,0.0,0,0.00,CLR,SKC,0.00,WeatherDisplay:10.37,2013-04-29 04:58:00,
2013-04-29 01:03:00,44.1,99.9,28.48,WSW,247,0.0,0.0,0,0.00,CLR,SKC,0.00,WeatherDisplay:10.37,2013-04-29 05:03:00,
2013-04-29 01:08:00,44.1,99.9,28.48,WSW,247,0.0,0.0,0,0.00,CLR,SKC,0.00,WeatherDisplay:10.37,2013-04-29 05:08:00,
2013-04-29 01:13:00,44.1,99.9,28.48,WSW,247,0.0,0.0,0,0.00,CLR,SKC,0.00,WeatherDisplay:10.37,2013-04-29 05:13:00,
2013-04-29 01:18:00,44.1,99.9,28.48,WSW,247,0.0,0.0,0,0.00,CLR,SKC,0.00,WeatherDisplay:10.37,2013-04-29 05:18:00,
2013-04-29 01:23:00,44.1,99.9,28.47,WSW,247,0.0,0.0,0,0.00,CLR,SKC,0.00,WeatherDisplay:10.37,2013-04-29 05:23:00,
2013-04-29 01:28:00,44.1,99.9,28.47,WSW,247,0.0,0.0,0,0.00,CLR,SKC,0.00,WeatherDisplay:10.37,2013-04-29 05:28:00,
2013-04-29 01:33:00,44.1,99.9,28.47,WSW,247,0.0,0.0,0,0.00,CLR,SKC,0.00,WeatherDisplay:10.37,2013-04-29 05:33:00,
2013-04-29 01:38:00,44.1,99.9,28.47,WSW,247,0.3,1.0,0,0.00,CLR,SKC,0.00,WeatherDisplay:10.37,2013-04-29 05:38:00,
2013-04-29 01:43:00,45.1,99.9,28.47,WSW,247,0.0,0.0,0,0.00,CLR,SKC,0.00,WeatherDisplay:10.37,2013-04-29 05:43:00,
2013-04-29 01:48:00,45.1,99.9,28.47,West,270,0.0,0.0,0,0.00,CLR,SKC,0.00,WeatherDisplay:10.37,2013-04-29 05:48:00,
2013-04-29 01:53:00,45.1,99.9,28.46,WSW,247,0.1,1.2,0,0.00,CLR,SKC,0.00,WeatherDisplay:10.37,2013-04-29 05:53:00,
2013-04-29 01:58:00,45.1,99.9,28.46,WSW,247,0.1,2.3,0,0.00,CLR,SKC,0.00,WeatherDisplay:10.37,2013-04-29 05:58:00,
2013-04-29 02:03:00,45.1,99.9,28.46,WSW,247,0.0,0.0,0,0.00,CLR,SKC,0.00,WeatherDisplay:10.37,2013-04-29 06:03:00,
2013-04-29 02:08:00,45.1,99.9,28.46,West,270,0.1,1.0,0,0.00,CLR,SKC,0.00,WeatherDisplay:10.37,2013-04-29 06:08:00,
2013-04-29 02:13:00,46.1,99.9,28.47,WNW,292,0.5,3.0,0,0.00,CLR,SKC,0.00,WeatherDisplay:10.37,2013-04-29 06:13:00,
2013-04-29 02:18:00,45.1,99.9,28.47,West,270,0.0,1.2,0,0.00,CLR,SKC,0.00,WeatherDisplay:10.37,2013-04-29 06:18:00,
2013-04-29 02:23:00,46.1,99.9,28.46,West,270,0.0,0.0,0,0.00,CLR,SKC,0.00,WeatherDisplay:10.37,2013-04-29 06:23:00,
2013-04-29 02:28:00,45.1,99.9,28.46,WSW,247,0.0,0.0,0,0.00,CLR,SKC,0.00,WeatherDisplay:10.37,2013-04-29 06:28:00,
2013-04-29 02:33:00,45.1,99.9,28.46,West,270,0.0,0.0,0,0.00,CLR,SKC,0.00,WeatherDisplay:10.37,2013-04-29 06:33:00,
2013-04-29 02:38:00,45.1,99.9,28.46,WNW,292,0.0,0.0,0,0.00,CLR,SKC,0.00,WeatherDisplay:10.37,2013-04-29 06:38:00,
2013-04-29 02:43:00,45.1,99.9,28.46,West,270,0.0,0.0,0,0.00,CLR,SKC,0.00,WeatherDisplay:10.37,2013-04-29 06:43:00,
2013-04-29 02:48:00,45.1,99.9,28.46,WSW,247,0.0,0.0,0,0.00,CLR,SKC,0.00,WeatherDisplay:10.37,2013-04-29 06:48:00,
2013-04-29 02:53:00,45.1,99.9,28.46,WSW,247,0.0,0.0,0,0.00,CLR,SKC,0.00,WeatherDisplay:10.37,2013-04-29 06:53:00,
2013-04-29 02:58:00,45.1,99.9,28.46,West,270,0.0,0.0,0,0.00,CLR,SKC,0.00,WeatherDisplay:10.37,2013-04-29 06:58:00,
2013-04-29 03:03:00,45.1,99.9,28.45,West,270,0.0,2.3,0,0.00,CLR,SKC,0.00,WeatherDisplay:10.37,2013-04-29 07:03:00,
2013-04-29 03:08:00,45.1,99.9,28.45,WSW,247,0.0,0.0,0,0.00,CLR,SKC,0.00,WeatherDisplay:10.37,2013-04-29 07:08:00,
2013-04-29 03:13:00,45.1,99.9,28.45,WSW,247,0.0,0.0,0,0.00,CLR,SKC,0.00,WeatherDisplay:10.37,2013-04-29 07:13:00,
2013-04-29 03:18:00,45.1,99.9,28.45,WSW,247,0.0,0.0,0,0.00,CLR,SKC,0.00,WeatherDisplay:10.37,2013-04-29 07:18:00,
2013-04-29 03:23:00,45.1,99.9,28.44,West,270,0.0,0.0,0,0.00,CLR,SKC,0.00,WeatherDisplay:10.37,2013-04-29 07:23:00,
2013-04-29 03:28:00,45.1,99.9,28.44,WSW,247,0.0,0.0,0,0.00,CLR,SKC,0.00,WeatherDisplay:10.37,2013-04-29 07:28:00,
2013-04-29 03:33:00,45.1,99.9,28.44,WSW,247,0.0,0.0,0,0.00,CLR,SKC,0.00,WeatherDisplay:10.37,2013-04-29 07:33:00,
2013-04-29 03:38:00,44.1,99.9,28.44,WSW,247,0.0,0.0,0,0.00,CLR,SKC,0.00,WeatherDisplay:10.37,2013-04-29 07:38:00,
2013-04-29 03:43:00,44.1,99.9,28.44,WSW,247,0.0,0.0,0,0.00,CLR,SKC,0.00,WeatherDisplay:10.37,2013-04-29 07:43:00,
2013-04-29 03:48:00,44.1,99.9,28.44,WSW,247,0.0,0.0,0,0.00,CLR,SKC,0.00,WeatherDisplay:10.37,2013-04-29 07:48:00,
2013-04-29 03:53:00,44.1,99.9,28.44,WSW,247,0.0,0.0,0,0.00,CLR,SKC,0.00,WeatherDisplay:10.37,2013-04-29 07:53:00,
2013-04-29 03:58:00,44.1,99.9,28.44,WSW,247,0.0,0.0,0,0.00,CLR,SKC,0.00,WeatherDisplay:10.37,2013-04-29 07:58:00,
2013-04-29 04:03:00,44.1,99.9,28.44,WSW,247,0.0,0.0,0,0.00,CLR,SKC,0.00,WeatherDisplay:10.37,2013-04-29 08:03:00,
2013-04-29 04:08:00,44.1,99.9,28.44,WSW,247,0.0,0.0,0,0.00,CLR,SKC,0.00,WeatherDisplay:10.37,2013-04-29 08:08:00,
2013-04-29 04:13:00,44.1,99.9,28.45,WSW,247,0.0,0.0,0,0.00,CLR,SKC,0.00,WeatherDisplay:10.37,2013-04-29 08:13:00,
2013-04-29 04:18:00,43.1,99.9,28.45,WSW,247,0.0,0.0,0,0.00,CLR,SKC,0.00,WeatherDisplay:10.37,2013-04-29 08:18:00,
2013-04-29 04:23:00,43.1,99.9,28.45,WSW,247,0.0,0.0,0,0.00,CLR,SKC,0.00,WeatherDisplay:10.37,2013-04-29 08:23:00,
2013-04-29 04:28:00,43.1,99.9,28.45,WSW,247,0.0,0.0,0,0.00,CLR,SKC,0.00,WeatherDisplay:10.37,2013-04-29 08:28:00,
2013-04-29 04:33:00,43.1,99.9,28.45,South,180,0.0,0.0,0,0.00,CLR,SKC,0.00,WeatherDisplay:10.37,2013-04-29 08:33:00,
2013-04-29 04:38:00,42.1,99.9,28.45,South,180,0.0,0.0,0,0.00,CLR,SKC,0.00,WeatherDisplay:10.37,2013-04-29 08:38:00,
2013-04-29 04:43:00,43.1,99.9,28.45,South,180,0.0,0.0,0,0.00,CLR,SKC,0.00,WeatherDisplay:10.37,2013-04-29 08:43:00,
2013-04-29 04:48:00,42.1,99.9,28.45,South,180,0.0,0.0,0,0.00,CLR,SKC,0.00,WeatherDisplay:10.37,2013-04-29 08:48:00,
2013-04-29 04:53:00,42.1,99.9,28.45,South,180,0.0,0.0,0,0.00,CLR,SKC,0.00,WeatherDisplay:10.37,2013-04-29 08:53:00,
2013-04-29 04:58:00,42.1,99.9,28.45,South,180,0.0,0.0,0,0.00,CLR,SKC,0.00,WeatherDisplay:10.37,2013-04-29 08:58:00,
2013-04-29 05:03:00,42.1,99.9,28.45,South,180,0.0,0.0,0,0.00,CLR,SKC,0.00,WeatherDisplay:10.37,2013-04-29 09:03:00,
2013-04-29 05:08:00,42.1,99.9,28.45,South,180,0.0,0.0,0,0.00,CLR,SKC,0.00,WeatherDisplay:10.37,2013-04-29 09:08:00,
2013-04-29 05:13:00,42.1,99.9,28.45,South,180,0.0,0.0,0,0.00,CLR,SKC,0.00,WeatherDisplay:10.37,2013-04-29 09:13:00,
2013-04-29 05:18:00,42.1,99.9,28.45,South,180,0.0,0.0,0,0.00,CLR,SKC,0.00,WeatherDisplay:10.37,2013-04-29 09:18:00,
2013-04-29 05:23:00,42.1,99.9,28.46,South,180,0.0,0.0,0,0.00,CLR,SKC,0.00,WeatherDisplay:10.37,2013-04-29 09:23:00,
2013-04-29 05:28:00,42.1,99.9,28.46,South,180,0.0,0.0,0,0.00,CLR,SKC,0.00,WeatherDisplay:10.37,2013-04-29 09:28:00,
2013-04-29 05:33:00,42.1,99.9,28.47,South,180,0.0,0.0,0,0.00,CLR,SKC,0.00,WeatherDisplay:10.37,2013-04-29 09:33:00,
2013-04-29 05:38:00,42.1,99.9,28.47,South,180,0.0,0.0,0,0.00,CLR,SKC,0.00,WeatherDisplay:10.37,2013-04-29 09:38:00,
2013-04-29 05:43:00,42.1,99.9,28.47,South,180,0.0,0.0,0,0.00,CLR,SKC,0.00,WeatherDisplay:10.37,2013-04-29 09:43:00,
2013-04-29 05:48:00,42.1,99.9,28.47,South,180,0.0,0.0,0,0.00,CLR,SKC,0.00,WeatherDisplay:10.37,2013-04-29 09:48:00,
2013-04-29 05:53:00,42.1,99.9,28.47,South,180,0.0,0.0,0,0.00,CLR,SKC,0.00,WeatherDisplay:10.37,2013-04-29 09:53:00,
2013-04-29 05:58:00,42.1,99.9,28.47,South,180,0.0,0.0,0,0.00,CLR,SKC,0.00,WeatherDisplay:10.37,2013-04-29 09:58:00,
2013-04-29 06:03:00,42.1,99.9,28.48,South,180,0.0,0.0,0,0.00,CLR,SKC,0.00,WeatherDisplay:10.37,2013-04-29 10:03:00,
2013-04-29 06:08:00,42.1,99.9,28.48,South,180,0.0,0.0,0,0.00,CLR,SKC,0.00,WeatherDisplay:10.37,2013-04-29 10:08:00,
2013-04-29 06:13:00,43.1,99.9,28.48,South,180,0.0,0.0,0,0.00,CLR,SKC,0.00,WeatherDisplay:10.37,2013-04-29 10:13:00,
2013-04-29 06:18:00,43.1,99.9,28.48,South,180,0.0,0.0,0,0.00,CLR,SKC,0.00,WeatherDisplay:10.37,2013-04-29 10:18:00,
2013-04-29 06:23:00,43.1,99.9,28.48,South,180,0.0,0.0,0,0.00,CLR,SKC,0.00,WeatherDisplay:10.37,2013-04-29 10:23:00,
2013-04-29 06:28:00,43.1,99.9,28.48,South,180,0.0,0.0,0,0.00,CLR,SKC,0.00,WeatherDisplay:10.37,2013-04-29 10:28:00,
2013-04-29 06:33:00,43.1,99.9,28.49,South,180,0.0,0.0,0,0.00,CLR,SKC,0.00,WeatherDisplay:10.37,2013-04-29 10:33:00,
2013-04-29 06:38:00,43.1,99.9,28.49,South,180,0.0,0.0,0,0.00,CLR,SKC,0.00,WeatherDisplay:10.37,2013-04-29 10:38:00,
2013-04-29 06:43:00,44.1,99.9,28.49,South,180,0.0,0.0,0,0.00,CLR,SKC,0.00,WeatherDisplay:10.37,2013-04-29 10:43:00,
2013-04-29 06:48:00,44.1,99.9,28.49,South,180,0.0,0.0,0,0.00,CLR,SKC,0.00,WeatherDisplay:10.37,2013-04-29 10:48:00,
2013-04-29 06:53:00,45.1,99.9,28.49,South,180,0.0,0.0,0,0.00,CLR,SKC,0.00,WeatherDisplay:10.37,2013-04-29 10:53:00,
2013-04-29 06:58:00,45.1,99.9,28.49,South,180,0.0,0.0,0,0.00,CLR,SKC,0.00,WeatherDisplay:10.37,2013-04-29 10:58:00,
2013-04-29 07:03:00,45.1,99.9,28.49,South,180,0.0,0.0,0,0.00,CLR,SKC,0.00,WeatherDisplay:10.37,2013-04-29 11:03:00,
2013-04-29 07:08:00,46.1,99.9,28.49,South,180,0.0,0.0,0,0.00,CLR,SKC,0.00,WeatherDisplay:10.37,2013-04-29 11:08:00,
2013-04-29 07:13:00,47.1,99.9,28.49,South,180,0.0,0.0,0,0.00,CLR,SKC,0.00,WeatherDisplay:10.37,2013-04-29 11:13:00,
2013-04-29 07:18:00,47.1,99.9,28.49,ESE,112,0.0,0.0,0,0.00,CLR,SKC,0.00,WeatherDisplay:10.37,2013-04-29 11:18:00,
2013-04-29 07:23:00,48.1,99.9,28.49,SE,135,0.0,0.0,0,0.00,CLR,SKC,0.00,WeatherDisplay:10.37,2013-04-29 11:23:00,
2013-04-29 07:28:00,48.1,99.9,28.49,ESE,112,0.0,0.0,0,0.00,CLR,SKC,0.00,WeatherDisplay:10.37,2013-04-29 11:28:00,
2013-04-29 07:33:00,49.1,99.9,28.49,SE,135,0.0,0.0,0,0.00,CLR,SKC,0.00,WeatherDisplay:10.37,2013-04-29 11:33:00,
2013-04-29 07:38:00,49.1,99.9,28.49,SE,135,0.0,0.0,0,0.00,CLR,SKC,0.00,WeatherDisplay:10.37,2013-04-29 11:38:00,
2013-04-29 07:43:00,50.1,99.9,28.49,SE,135,0.0,0.0,0,0.00,CLR,SKC,0.00,WeatherDisplay:10.37,2013-04-29 11:43:00,
2013-04-29 07:48:00,50.1,99.9,28.49,SE,135,0.0,0.0,0,0.00,CLR,SKC,0.00,WeatherDisplay:10.37,2013-04-29 11:48:00,
2013-04-29 07:53:00,50.1,99.9,28.49,SSE,157,0.0,0.0,0,0.00,CLR,SKC,0.00,WeatherDisplay:10.37,2013-04-29 11:53:00,
2013-04-29 07:58:00,50.1,99.9,28.49,SSW,202,0.5,2.3,0,0.00,CLR,SKC,0.00,WeatherDisplay:10.37,2013-04-29 11:58:00,
2013-04-29 08:03:00,51.1,99.9,28.50,South,180,0.0,0.0,0,0.00,CLR,SKC,0.00,WeatherDisplay:10.37,2013-04-29 12:03:00,
2013-04-29 08:08:00,51.1,99.9,28.50,SSE,157,0.0,0.0,0,0.00,CLR,SKC,0.00,WeatherDisplay:10.37,2013-04-29 12:08:00,
2013-04-29 08:13:00,52.1,99.9,28.49,SSE,157,0.0,0.0,0,0.00,CLR,SKC,0.00,WeatherDisplay:10.37,2013-04-29 12:13:00,
2013-04-29 08:18:00,52.1,99.9,28.49,SSW,202,2.9,3.5,0,0.00,CLR,SKC,0.00,WeatherDisplay:10.37,2013-04-29 12:18:00,
2013-04-29 08:23:00,52.1,99.9,28.49,South,180,0.7,3.5,0,0.00,CLR,SKC,0.00,WeatherDisplay:10.37,2013-04-29 12:23:00,
2013-04-29 08:28:00,52.1,99.9,28.49,SSE,157,0.0,0.0,0,0.00,CLR,SKC,0.00,WeatherDisplay:10.37,2013-04-29 12:28:00,
2013-04-29 08:33:00,53.1,99.9,28.49,SW,225,0.6,3.5,0,0.00,CLR,SKC,0.00,WeatherDisplay:10.37,2013-04-29 12:33:00,
2013-04-29 08:38:00,53.1,99.9,28.49,SSW,202,1.8,3.5,0,0.00,CLR,SKC,0.00,WeatherDisplay:10.37,2013-04-29 12:38:00,
2013-04-29 08:43:00,54.1,99.9,28.49,SSE,157,1.9,3.5,0,0.00,CLR,SKC,0.00,WeatherDisplay:10.37,2013-04-29 12:43:00,
2013-04-29 08:48:00,54.1,99.9,28.49,SSE,157,1.9,4.0,0,0.00,CLR,SKC,0.00,WeatherDisplay:10.37,2013-04-29 12:48:00,
2013-04-29 08:53:00,54.1,-32.9,28.49,South,180,1.6,3.5,2,0.00,CLR,SKC,0.00,WeatherDisplay:10.37,2013-04-29 12:53:00,
2013-04-29 08:58:00,54.1,99.9,28.49,WSW,247,0.5,3.5,0,0.00,CLR,SKC,0.00,WeatherDisplay:10.37,2013-04-29 12:58:00,
2013-04-29 09:03:00,55.1,99.9,28.49,SSW,202,0.1,3.5,0,0.00,CLR,SKC,0.00,WeatherDisplay:10.37,2013-04-29 13:03:00,
2013-04-29 09:08:00,55.1,99.9,28.49,South,180,0.0,0.0,0,0.00,CLR,SKC,0.00,WeatherDisplay:10.37,2013-04-29 13:08:00,
2013-04-29 09:13:00,56.1,-43.7,28.49,WNW,292,1.6,3.5,1,0.00,CLR,SKC,0.00,WeatherDisplay:10.37,2013-04-29 13:13:00,
2013-04-29 09:18:00,56.1,9.0,28.49,West,270,1.6,3.5,15,0.00,CLR,SKC,0.00,WeatherDisplay:10.37,2013-04-29 13:18:00,
2013-04-29 09:23:00,56.1,16.6,28.48,West,270,1.6,5.0,21,0.00,CLR,SKC,0.00,WeatherDisplay:10.37,2013-04-29 13:23:00,
2013-04-29 09:28:00,56.1,15.5,28.48,WNW,292,3.2,4.6,20,0.00,CLR,SKC,0.00,WeatherDisplay:10.37,2013-04-29 13:28:00,
2013-04-29 09:33:00,57.1,19.6,28.48,WSW,247,1.0,3.5,23,0.00,CLR,SKC,0.00,WeatherDisplay:10.37,2013-04-29 13:33:00,
2013-04-29 09:38:00,57.1,24.2,28.48,South,180,1.4,3.5,28,0.00,CLR,SKC,0.00,WeatherDisplay:10.37,2013-04-29 13:38:00,
2013-04-29 09:43:00,58.1,27.6,28.48,NW,315,1.5,3.5,31,0.00,CLR,SKC,0.00,WeatherDisplay:10.37,2013-04-29 13:43:00,
2013-04-29 09:48:00,59.1,28.4,28.48,West,270,1.6,3.5,31,0.00,CLR,SKC,0.00,WeatherDisplay:10.37,2013-04-29 13:48:00,
2013-04-29 09:53:00,59.1,34.1,28.48,WSW,247,1.3,3.5,39,0.00,CLR,SKC,0.00,WeatherDisplay:10.37,2013-04-29 13:53:00,
2013-04-29 09:58:00,59.1,39.4,28.48,NW,315,1.7,3.5,48,0.00,CLR,SKC,0.00,WeatherDisplay:10.37,2013-04-29 13:58:00,
2013-04-29 10:03:00,59.1,43.4,28.48,WNW,292,1.6,3.5,56,0.00,CLR,SKC,0.00,WeatherDisplay:10.37,2013-04-29 14:03:00,
2013-04-29 10:08:00,59.1,46.5,28.48,ENE,67,0.5,2.3,63,0.00,CLR,SKC,0.00,WeatherDisplay:10.37,2013-04-29 14:08:00,
2013-04-29 10:13:00,59.1,41.0,28.48,East,90,2.0,4.6,51,0.00,CLR,SKC,0.00,WeatherDisplay:10.37,2013-04-29 14:13:00,
2013-04-29 10:18:00,60.1,38.1,28.48,ESE,112,1.0,3.5,44,0.00,CLR,SKC,0.00,WeatherDisplay:10.37,2013-04-29 14:18:00,
2013-04-29 10:23:00,61.1,39.6,28.48,ESE,112,4.9,6.9,45,0.00,CLR,SKC,0.00,WeatherDisplay:10.37,2013-04-29 14:23:00,
2013-04-29 10:28:00,61.1,41.8,28.48,ESE,112,3.8,4.6,49,0.00,CLR,SKC,0.00,WeatherDisplay:10.37,2013-04-29 14:28:00,
2013-04-29 10:33:00,62.1,44.7,28.48,East,90,3.6,4.6,53,0.00,CLR,SKC,0.00,WeatherDisplay:10.37,2013-04-29 14:33:00,
2013-04-29 10:38:00,62.1,43.2,28.48,East,90,2.1,3.5,50,0.00,CLR,SKC,0.00,WeatherDisplay:10.37,2013-04-29 14:38:00,
2013-04-29 10:43:00,63.1,46.6,28.48,East,90,1.5,3.5,55,0.00,CLR,SKC,0.00,WeatherDisplay:10.37,2013-04-29 14:43:00,
2013-04-29 10:48:00,63.1,48.1,28.48,ENE,67,2.7,4.0,58,0.00,CLR,SKC,0.00,WeatherDisplay:10.37,2013-04-29 14:48:00,
2013-04-29 10:53:00,64.1,49.9,28.48,NNE,22,1.6,3.5,60,0.00,CLR,SKC,0.00,WeatherDisplay:10.37,2013-04-29 14:53:00,
2013-04-29 10:58:00,63.1,49.8,28.48,ESE,112,4.4,6.0,62,0.00,CLR,SKC,0.00,WeatherDisplay:10.37,2013-04-29 14:58:00,
2013-04-29 11:03:00,64.1,52.9,28.47,SSW,202,3.0,3.5,67,0.00,CLR,SKC,0.00,WeatherDisplay:10.37,2013-04-29 15:03:00,
2013-04-29 11:08:00,62.1,52.2,28.47,NW,315,0.7,3.5,70,0.00,CLR,SKC,0.00,WeatherDisplay:10.37,2013-04-29 15:08:00,
2013-04-29 11:13:00,63.1,51.9,28.47,SSW,202,2.2,5.8,67,0.00,CLR,SKC,0.00,WeatherDisplay:10.37,2013-04-29 15:13:00,
2013-04-29 11:18:00,64.1,50.8,28.47,SSW,202,2.0,5.0,62,0.00,CLR,SKC,0.00,WeatherDisplay:10.37,2013-04-29 15:18:00,
2013-04-29 11:23:00,64.1,46.6,28.47,SW,225,1.8,5.0,53,0.00,CLR,SKC,0.00,WeatherDisplay:10.37,2013-04-29 15:23:00,
2013-04-29 11:28:00,64.1,41.7,28.47,SSE,157,1.0,3.5,44,0.00,CLR,SKC,0.00,WeatherDisplay:10.37,2013-04-29 15:28:00,
2013-04-29 11:33:00,65.1,43.8,28.47,WNW,292,1.8,3.5,46,0.00,CLR,SKC,0.00,WeatherDisplay:10.37,2013-04-29 15:33:00,
2013-04-29 11:38:00,64.1,41.7,28.47,South,180,1.5,6.9,44,0.00,CLR,SKC,0.00,WeatherDisplay:10.37,2013-04-29 15:38:00,
2013-04-29 11:43:00,65.1,41.4,28.47,SSE,157,1.8,4.6,42,0.00,CLR,SKC,0.00,WeatherDisplay:10.37,2013-04-29 15:43:00,
2013-04-29 11:48:00,64.1,36.6,28.47,South,180,6.4,8.1,36,0.00,CLR,SKC,0.00,WeatherDisplay:10.37,2013-04-29 15:48:00,
2013-04-29 11:53:00,64.1,36.6,28.47,ESE,112,5.5,9.2,36,0.00,CLR,SKC,0.00,WeatherDisplay:10.37,2013-04-29 15:53:00,
2013-04-29 11:58:00,64.1,36.6,28.47,SSE,157,7.5,11.5,36,0.00,CLR,SKC,0.00,WeatherDisplay:10.37,2013-04-29 15:58:00,
2013-04-29 12:03:00,66.1,42.3,28.46,ESE,112,5.9,8.1,42,0.00,CLR,SKC,0.00,WeatherDisplay:10.37,2013-04-29 16:03:00,
2013-04-29 12:08:00,66.1,40.4,28.46,SE,135,7.5,11.5,39,0.00,CLR,SKC,0.00,WeatherDisplay:10.37,2013-04-29 16:08:00,
2013-04-29 12:13:00,65.1,36.0,28.46,SE,135,8.5,10.4,34,0.00,CLR,SKC,0.00,WeatherDisplay:10.37,2013-04-29 16:13:00,
2013-04-29 12:18:00,64.1,35.1,28.46,SSE,157,6.4,12.7,34,0.00,CLR,SKC,0.00,WeatherDisplay:10.37,2013-04-29 16:18:00,
2013-04-29 12:23:00,65.1,36.7,28.46,SE,135,6.1,10.4,35,0.00,CLR,SKC,0.00,WeatherDisplay:10.37,2013-04-29 16:23:00,
2013-04-29 12:28:00,65.1,36.0,28.46,ESE,112,6.0,10.4,34,0.00,CLR,SKC,0.00,WeatherDisplay:10.37,2013-04-29 16:28:00,
2013-04-29 12:33:00,65.1,34.5,28.46,SE,135,7.5,10.4,32,0.00,CLR,SKC,0.00,WeatherDisplay:10.37,2013-04-29 16:33:00,
2013-04-29 12:38:00,66.1,36.1,28.46,ESE,112,6.5,10.4,33,0.00,CLR,SKC,0.00,WeatherDisplay:10.37,2013-04-29 16:38:00,
2013-04-29 12:43:00,65.1,34.5,28.46,SE,135,3.8,6.9,32,0.00,CLR,SKC,0.00,WeatherDisplay:10.37,2013-04-29 16:43:00,
2013-04-29 12:48:00,66.1,36.9,28.46,SE,135,5.4,10.4,34,0.00,CLR,SKC,0.00,WeatherDisplay:10.37,2013-04-29 16:48:00,
2013-04-29 12:53:00,66.1,36.9,28.46,ESE,112,8.5,10.4,34,0.00,CLR,SKC,0.00,WeatherDisplay:10.37,2013-04-29 16:53:00,
2013-04-29 12:58:00,64.1,34.4,28.46,SE,135,7.2,9.2,33,0.00,CLR,SKC,0.00,WeatherDisplay:10.37,2013-04-29 16:58:00,
2013-04-29 13:03:00,64.1,33.6,28.45,ESE,112,5.8,10.4,32,0.00,CLR,SKC,0.00,WeatherDisplay:10.37,2013-04-29 17:03:00,
2013-04-29 13:08:00,66.1,39.7,28.45,SSE,157,5.9,8.1,38,0.00,CLR,SKC,0.00,WeatherDisplay:10.37,2013-04-29 17:08:00,
2013-04-29 13:13:00,65.1,34.5,28.45,ESE,112,5.9,11.5,32,0.00,CLR,SKC,0.00,WeatherDisplay:10.37,2013-04-29 17:13:00,
2013-04-29 13:18:00,65.1,37.4,28.45,SE,135,9.0,11.0,36,0.00,CLR,SKC,0.00,WeatherDisplay:10.37,2013-04-29 17:18:00,
2013-04-29 13:23:00,65.1,36.7,28.45,ESE,112,5.7,11.5,35,0.00,CLR,SKC,0.00,WeatherDisplay:10.37,2013-04-29 17:23:00,
2013-04-29 13:28:00,64.1,27.5,28.45,SE,135,4.3,11.5,25,0.00,CLR,SKC,0.00,WeatherDisplay:10.37,2013-04-29 17:28:00,
2013-04-29 13:33:00,65.1,32.9,28.45,SE,135,4.7,10.4,30,0.00,CLR,SKC,0.00,WeatherDisplay:10.37,2013-04-29 17:33:00,
2013-04-29 13:38:00,63.1,25.7,28.45,ESE,112,7.2,10.4,24,0.00,CLR,SKC,0.00,WeatherDisplay:10.37,2013-04-29 17:38:00,
2013-04-29 13:43:00,64.1,31.1,28.45,SE,135,4.6,6.9,29,0.00,CLR,SKC,0.00,WeatherDisplay:10.37,2013-04-29 17:43:00,
2013-04-29 13:48:00,64.1,29.4,28.45,SSE,157,3.6,9.0,27,0.00,CLR,SKC,0.00,WeatherDisplay:10.37,2013-04-29 17:48:00,
2013-04-29 13:53:00,65.1,37.4,28.45,SE,135,5.3,6.9,36,0.00,CLR,SKC,0.00,WeatherDisplay:10.37,2013-04-29 17:53:00,
2013-04-29 13:58:00,65.1,43.2,28.45,SE,135,8.3,11.5,45,0.00,CLR,SKC,0.00,WeatherDisplay:10.37,2013-04-29 17:58:00,
2013-04-29 14:03:00,66.1,44.1,28.44,ESE,112,8.7,12.0,45,0.00,CLR,SKC,0.00,WeatherDisplay:10.37,2013-04-29 18:03:00,
2013-04-29 14:08:00,65.1,43.2,28.44,ESE,112,8.7,12.7,45,0.00,CLR,SKC,0.00,WeatherDisplay:10.37,2013-04-29 18:08:00,
2013-04-29 14:13:00,64.1,42.3,28.44,ESE,112,8.3,15.0,45,0.00,CLR,SKC,0.00,WeatherDisplay:10.37,2013-04-29 18:13:00,
2013-04-29 14:18:00,65.1,44.9,28.44,ESE,112,8.7,13.8,48,0.00,CLR,SKC,0.00,WeatherDisplay:10.37,2013-04-29 18:18:00,
2013-04-29 14:23:00,64.1,45.1,28.44,ESE,112,6.5,10.4,50,0.00,CLR,SKC,0.00,WeatherDisplay:10.37,2013-04-29 18:23:00,
2013-04-29 14:28:00,64.1,45.1,28.44,ENE,67,8.2,10.4,50,0.00,CLR,SKC,0.00,WeatherDisplay:10.37,2013-04-29 18:28:00,
2013-04-29 14:33:00,64.1,45.6,28.45,SE,135,8.1,11.5,51,0.00,CLR,SKC,0.00,WeatherDisplay:10.37,2013-04-29 18:33:00,
2013-04-29 14:38:00,64.1,46.1,28.45,ESE,112,6.2,9.2,52,0.00,CLR,SKC,0.00,WeatherDisplay:10.37,2013-04-29 18:38:00,
2013-04-29 14:43:00,65.1,48.0,28.45,ESE,112,5.2,6.0,54,0.00,CLR,SKC,0.00,WeatherDisplay:10.37,2013-04-29 18:43:00,
2013-04-29 14:48:00,63.1,46.6,28.45,ESE,112,8.8,11.0,55,0.00,CLR,SKC,0.00,WeatherDisplay:10.37,2013-04-29 18:48:00,
2013-04-29 14:53:00,63.1,45.7,28.44,ESE,112,8.1,11.5,53,0.00,CLR,SKC,0.00,WeatherDisplay:10.37,2013-04-29 18:53:00,
2013-04-29 14:58:00,64.1,46.1,28.44,ESE,112,10.0,12.7,52,0.00,CLR,SKC,0.00,WeatherDisplay:10.37,2013-04-29 18:58:00,
2013-04-29 15:03:00,63.1,47.6,28.44,SE,135,8.6,11.5,57,0.00,CLR,SKC,0.00,WeatherDisplay:10.37,2013-04-29 19:03:00,
2013-04-29 15:08:00,62.1,45.2,28.44,ESE,112,8.4,10.4,54,0.00,CLR,SKC,0.00,WeatherDisplay:10.37,2013-04-29 19:08:00,
2013-04-29 15:13:00,62.1,44.2,28.44,ESE,112,8.2,10.4,52,0.00,CLR,SKC,0.00,WeatherDisplay:10.37,2013-04-29 19:13:00,
2013-04-29 15:18:00,62.1,43.2,28.44,SE,135,8.1,11.5,50,0.00,CLR,SKC,0.00,WeatherDisplay:10.37,2013-04-29 19:18:00,
2013-04-29 15:23:00,62.1,43.2,28.44,SSE,157,5.2,10.0,50,0.00,CLR,SKC,0.00,WeatherDisplay:10.37,2013-04-29 19:23:00,
2013-04-29 15:28:00,59.1,38.3,28.44,SSE,157,8.6,11.5,46,0.00,CLR,SKC,0.00,WeatherDisplay:10.37,2013-04-29 19:28:00,
2013-04-29 15:33:00,61.1,42.3,28.44,ESE,112,9.2,11.5,50,0.00,CLR,SKC,0.00,WeatherDisplay:10.37,2013-04-29 19:33:00,
2013-04-29 15:38:00,60.1,40.8,28.44,ESE,112,8.7,10.4,49,0.00,CLR,SKC,0.00,WeatherDisplay:10.37,2013-04-29 19:38:00,
2013-04-29 15:43:00,60.1,40.8,28.44,SSE,157,6.7,9.2,49,0.00,CLR,SKC,0.00,WeatherDisplay:10.37,2013-04-29 19:43:00,
2013-04-29 15:48:00,60.1,40.8,28.44,SE,135,6.0,8.1,49,0.00,CLR,SKC,0.00,WeatherDisplay:10.37,2013-04-29 19:48:00,
2013-04-29 15:53:00,60.1,40.3,28.44,ESE,112,4.8,8.1,48,0.00,CLR,SKC,0.00,WeatherDisplay:10.37,2013-04-29 19:53:00,
2013-04-29 15:58:00,60.1,40.8,28.44,ESE,112,5.8,10.4,49,0.00,CLR,SKC,0.00,WeatherDisplay:10.37,2013-04-29 19:58:00,
2013-04-29 16:03:00,60.1,40.3,28.44,South,180,7.7,11.5,48,0.00,CLR,SKC,0.00,WeatherDisplay:10.37,2013-04-29 20:03:00,
2013-04-29 16:08:00,59.1,39.9,28.44,SE,135,4.9,9.2,49,0.00,CLR,SKC,0.00,WeatherDisplay:10.37,2013-04-29 20:08:00,
2013-04-29 16:13:00,58.1,39.0,28.44,SE,135,7.9,10.4,49,0.00,CLR,SKC,0.00,WeatherDisplay:10.37,2013-04-29 20:13:00,
2013-04-29 16:18:00,58.1,39.5,28.44,SE,135,6.1,10.4,50,0.00,CLR,SKC,0.00,WeatherDisplay:10.37,2013-04-29 20:18:00,
2013-04-29 16:23:00,59.1,39.4,28.44,SSE,157,5.9,10.0,48,0.00,CLR,SKC,0.00,WeatherDisplay:10.37,2013-04-29 20:23:00,
2013-04-29 16:28:00,59.1,41.0,28.44,ESE,112,7.1,10.4,51,0.00,CLR,SKC,0.00,WeatherDisplay:10.37,2013-04-29 20:28:00,
2013-04-29 16:33:00,59.1,41.5,28.44,ESE,112,8.8,10.4,52,0.00,CLR,SKC,0.00,WeatherDisplay:10.37,2013-04-29 20:33:00,
2013-04-29 16:38:00,59.1,41.0,28.44,SSE,157,5.8,10.4,51,0.00,CLR,SKC,0.00,WeatherDisplay:10.37,2013-04-29 20:38:00,
2013-04-29 16:43:00,58.1,39.0,28.44,South,180,4.9,5.8,49,0.00,CLR,SKC,0.00,WeatherDisplay:10.37,2013-04-29 20:43:00,
2013-04-29 16:48:00,58.1,42.5,28.44,ESE,112,7.1,10.4,56,0.00,CLR,SKC,0.00,WeatherDisplay:10.37,2013-04-29 20:48:00,
2013-04-29 16:53:00,59.1,44.3,28.44,SE,135,5.5,8.1,58,0.00,CLR,SKC,0.00,WeatherDisplay:10.37,2013-04-29 20:53:00,
2013-04-29 16:58:00,58.1,41.5,28.44,SE,135,8.0,10.4,54,0.00,CLR,SKC,0.00,WeatherDisplay:10.37,2013-04-29 20:58:00,
2013-04-29 17:03:00,58.1,40.5,28.44,SE,135,3.5,7.0,52,0.00,CLR,SKC,0.00,WeatherDisplay:10.37,2013-04-29 21:03:00,
2013-04-29 17:08:00,58.1,39.0,28.44,SE,135,7.7,10.0,49,0.00,CLR,SKC,0.00,WeatherDisplay:10.37,2013-04-29 21:08:00,
2013-04-29 17:13:00,57.1,38.1,28.44,ESE,112,7.2,9.2,49,0.00,CLR,SKC,0.00,WeatherDisplay:10.37,2013-04-29 21:13:00,
2013-04-29 17:18:00,57.1,40.6,28.44,SE,135,4.3,8.1,54,0.00,CLR,SKC,0.00,WeatherDisplay:10.37,2013-04-29 21:18:00,
2013-04-29 17:23:00,57.1,41.5,28.44,SE,135,5.1,9.2,56,0.00,CLR,SKC,0.00,WeatherDisplay:10.37,2013-04-29 21:23:00,
2013-04-29 17:28:00,56.1,38.7,28.44,SSW,202,4.6,8.1,52,0.00,CLR,SKC,0.00,WeatherDisplay:10.37,2013-04-29 21:28:00,
2013-04-29 17:33:00,56.1,39.2,28.44,SE,135,6.1,9.2,53,0.00,CLR,SKC,0.00,WeatherDisplay:10.37,2013-04-29 21:33:00,
2013-04-29 17:38:00,56.1,40.1,28.44,SSE,157,7.8,10.4,55,0.00,CLR,SKC,0.00,WeatherDisplay:10.37,2013-04-29 21:38:00,
2013-04-29 17:43:00,57.1,40.1,28.44,SSW,202,4.6,8.1,53,0.00,CLR,SKC,0.00,WeatherDisplay:10.37,2013-04-29 21:43:00,
2013-04-29 17:48:00,57.1,40.6,28.44,ESE,112,6.8,8.1,54,0.00,CLR,SKC,0.00,WeatherDisplay:10.37,2013-04-29 21:48:00,
2013-04-29 17:53:00,57.1,40.1,28.44,SSE,157,5.6,8.1,53,0.00,CLR,SKC,0.00,WeatherDisplay:10.37,2013-04-29 21:53:00,
2013-04-29 17:58:00,56.1,38.7,28.44,SSE,157,5.6,8.1,52,0.00,CLR,SKC,0.00,WeatherDisplay:10.37,2013-04-29 21:58:00,
2013-04-29 18:03:00,57.1,39.6,28.44,SSE,157,4.7,8.1,52,0.00,CLR,SKC,0.00,WeatherDisplay:10.37,2013-04-29 22:03:00,
2013-04-29 18:08:00,56.1,38.2,28.44,SE,135,4.7,9.2,51,0.00,CLR,SKC,0.00,WeatherDisplay:10.37,2013-04-29 22:08:00,
2013-04-29 18:13:00,56.1,39.7,28.44,SE,135,5.4,8.1,54,0.00,CLR,SKC,0.00,WeatherDisplay:10.37,2013-04-29 22:13:00,
2013-04-29 18:18:00,55.1,37.3,28.44,SE,135,5.3,6.9,51,0.00,CLR,SKC,0.00,WeatherDisplay:10.37,2013-04-29 22:18:00,
2013-04-29 18:23:00,55.1,37.3,28.44,SE,135,4.6,6.9,51,0.00,CLR,SKC,0.00,WeatherDisplay:10.37,2013-04-29 22:23:00,
2013-04-29 18:28:00,55.1,38.2,28.44,SSE,157,4.8,6.9,53,0.00,CLR,SKC,0.00,WeatherDisplay:10.37,2013-04-29 22:28:00,
2013-04-29 18:33:00,55.1,38.2,28.44,SSW,202,4.4,9.0,53,0.00,CLR,SKC,0.00,WeatherDisplay:10.37,2013-04-29 22:33:00,
2013-04-29 18:38:00,54.1,38.7,28.44,SSE,157,4.0,5.8,56,0.00,CLR,SKC,0.00,WeatherDisplay:10.37,2013-04-29 22:38:00,
2013-04-29 18:43:00,54.1,37.8,28.45,SE,135,5.5,6.9,54,0.00,CLR,SKC,0.00,WeatherDisplay:10.37,2013-04-29 22:43:00,
2013-04-29 18:48:00,54.1,40.1,28.45,ESE,112,3.7,6.9,59,0.00,CLR,SKC,0.00,WeatherDisplay:10.37,2013-04-29 22:48:00,
2013-04-29 18:53:00,53.1,39.6,28.45,ESE,112,3.7,4.6,60,0.00,CLR,SKC,0.00,WeatherDisplay:10.37,2013-04-29 22:53:00,
2013-04-29 18:58:00,53.1,40.4,28.45,ESE,112,1.4,3.5,62,0.00,CLR,SKC,0.00,WeatherDisplay:10.37,2013-04-29 22:58:00,
2013-04-29 19:03:00,53.1,41.6,28.45,SSE,157,3.6,4.6,65,0.00,CLR,SKC,0.00,WeatherDisplay:10.37,2013-04-29 23:03:00,
2013-04-29 19:08:00,52.1,41.5,28.45,ESE,112,3.2,4.0,67,0.00,CLR,SKC,0.00,WeatherDisplay:10.37,2013-04-29 23:08:00,
2013-04-29 19:13:00,52.1,42.6,28.45,ESE,112,1.8,3.5,70,0.00,CLR,SKC,0.00,WeatherDisplay:10.37,2013-04-29 23:13:00,
2013-04-29 19:18:00,52.1,43.3,28.45,SE,135,2.9,3.5,72,0.00,CLR,SKC,0.00,WeatherDisplay:10.37,2013-04-29 23:18:00,
2013-04-29 19:23:00,51.1,42.4,28.45,SE,135,3.9,5.0,72,0.00,CLR,SKC,0.00,WeatherDisplay:10.37,2013-04-29 23:23:00,
2013-04-29 19:28:00,51.1,43.1,28.45,ESE,112,0.7,3.0,74,0.00,CLR,SKC,0.00,WeatherDisplay:10.37,2013-04-29 23:28:00,
2013-04-29 19:33:00,51.1,43.1,28.45,ESE,112,0.6,3.5,74,0.00,CLR,SKC,0.00,WeatherDisplay:10.37,2013-04-29 23:33:00,
2013-04-29 19:38:00,50.1,43.1,28.45,SSE,157,0.6,3.5,77,0.00,CLR,SKC,0.00,WeatherDisplay:10.37,2013-04-29 23:38:00,
2013-04-29 19:43:00,50.1,43.1,28.45,SE,135,0.1,2.0,77,0.00,CLR,SKC,0.00,WeatherDisplay:10.37,2013-04-29 23:43:00,
2013-04-29 19:48:00,50.1,43.5,28.45,SSE,157,0.0,0.0,78,0.00,CLR,SKC,0.00,WeatherDisplay:10.37,2013-04-29 23:48:00,
2013-04-29 19:53:00,50.1,43.5,28.45,SSE,157,0.0,2.3,78,0.00,CLR,SKC,0.00,WeatherDisplay:10.37,2013-04-29 23:53:00,
2013-04-29 19:58:00,49.1,42.8,28.45,SSE,157,0.0,0.0,79,0.00,CLR,SKC,0.00,WeatherDisplay:10.37,2013-04-29 23:58:00,
2013-04-29 20:03:00,49.1,43.2,28.45,SSE,157,0.0,0.0,80,0.00,CLR,SKC,0.00,WeatherDisplay:10.37,2013-04-30 00:03:00,
2013-04-29 20:08:00,48.1,41.9,28.45,SSE,157,0.0,0.0,79,0.00,CLR,SKC,0.00,WeatherDisplay:10.37,2013-04-30 00:08:00,
2013-04-29 20:13:00,48.1,41.9,28.46,SSE,157,0.0,0.0,79,0.00,CLR,SKC,0.00,WeatherDisplay:10.37,2013-04-30 00:13:00,
2013-04-29 20:18:00,48.1,42.5,28.46,SSE,157,0.0,0.0,81,0.00,CLR,SKC,0.00,WeatherDisplay:10.37,2013-04-30 00:18:00,
2013-04-29 20:23:00,48.1,42.5,28.46,SSE,157,0.2,2.3,81,0.00,CLR,SKC,0.00,WeatherDisplay:10.37,2013-04-30 00:23:00,
2013-04-29 20:28:00,48.1,42.8,28.46,SSE,157,0.0,0.0,82,0.00,CLR,SKC,0.00,WeatherDisplay:10.37,2013-04-30 00:28:00,
2013-04-29 20:33:00,47.1,41.5,28.46,SSE,157,0.0,0.0,81,0.00,CLR,SKC,0.00,WeatherDisplay:10.37,2013-04-30 00:33:00,
2013-04-29 20:38:00,47.1,41.5,28.46,SSE,157,0.0,0.0,81,0.00,CLR,SKC,0.00,WeatherDisplay:10.37,2013-04-30 00:38:00,
2013-04-29 20:43:00,47.1,41.5,28.46,South,180,0.0,0.0,81,0.00,CLR,SKC,0.00,WeatherDisplay:10.37,2013-04-30 00:43:00,
2013-04-29 20:48:00,46.1,40.9,28.46,SSE,157,0.3,2.3,82,0.00,CLR,SKC,0.00,WeatherDisplay:10.37,2013-04-30 00:48:00,
2013-04-29 20:53:00,47.1,41.9,28.47,SE,135,0.0,0.0,82,0.00,CLR,SKC,0.00,WeatherDisplay:10.37,2013-04-30 00:53:00,
2013-04-29 20:58:00,46.1,40.9,28.47,SSE,157,0.0,0.0,82,0.00,CLR,SKC,0.00,WeatherDisplay:10.37,2013-04-30 00:58:00,
2013-04-29 21:03:00,47.1,42.2,28.47,SSE,157,0.0,0.0,83,0.00,CLR,SKC,0.00,WeatherDisplay:10.37,2013-04-30 01:03:00,
2013-04-29 21:08:00,47.1,42.2,28.47,SSE,157,0.2,2.3,83,0.00,CLR,SKC,0.00,WeatherDisplay:10.37,2013-04-30 01:08:00,
2013-04-29 21:13:00,47.1,42.2,28.48,SSE,157,0.2,0.0,83,0.00,CLR,SKC,0.00,WeatherDisplay:10.37,2013-04-30 01:13:00,
2013-04-29 21:18:00,46.1,41.2,28.48,SSE,157,0.0,0.0,83,0.00,CLR,SKC,0.00,WeatherDisplay:10.37,2013-04-30 01:18:00,
2013-04-29 21:23:00,46.1,41.2,28.47,SE,135,0.0,2.3,83,0.00,CLR,SKC,0.00,WeatherDisplay:10.37,2013-04-30 01:23:00,
2013-04-29 21:28:00,46.1,41.2,28.47,SE,135,0.0,0.0,83,0.00,CLR,SKC,0.00,WeatherDisplay:10.37,2013-04-30 01:28:00,
2013-04-29 21:33:00,46.1,41.2,28.47,SSE,157,0.0,0.0,83,0.00,CLR,SKC,0.00,WeatherDisplay:10.37,2013-04-30 01:33:00,
2013-04-29 21:38:00,45.1,40.5,28.47,SSE,157,0.0,0.0,84,0.00,CLR,SKC,0.00,WeatherDisplay:10.37,2013-04-30 01:38:00,
2013-04-29 21:43:00,45.1,40.2,28.47,SSE,157,0.0,0.0,83,0.00,CLR,SKC,0.00,WeatherDisplay:10.37,2013-04-30 01:43:00,
2013-04-29 21:48:00,45.1,40.5,28.47,SE,135,0.7,2.3,84,0.00,CLR,SKC,0.00,WeatherDisplay:10.37,2013-04-30 01:48:00,
2013-04-29 21:53:00,45.1,40.5,28.47,SSE,157,0.0,0.0,84,0.00,CLR,SKC,0.00,WeatherDisplay:10.37,2013-04-30 01:53:00,
2013-04-29 21:58:00,45.1,40.5,28.47,South,180,0.5,2.3,84,0.00,CLR,SKC,0.00,WeatherDisplay:10.37,2013-04-30 01:58:00,
2013-04-29 22:03:00,45.1,40.5,28.47,SSE,157,0.0,0.0,84,0.00,CLR,SKC,0.00,WeatherDisplay:10.37,2013-04-30 02:03:00,
2013-04-29 22:08:00,44.1,39.6,28.47,SSE,157,0.0,0.0,84,0.00,CLR,SKC,0.00,WeatherDisplay:10.37,2013-04-30 02:08:00,
2013-04-29 22:13:00,45.1,40.5,28.47,South,180,0.0,0.0,84,0.00,CLR,SKC,0.00,WeatherDisplay:10.37,2013-04-30 02:13:00,
2013-04-29 22:18:00,44.1,39.2,28.47,South,180,0.0,0.0,83,0.00,CLR,SKC,0.00,WeatherDisplay:10.37,2013-04-30 02:18:00,
2013-04-29 22:23:00,44.1,39.2,28.47,South,180,0.0,0.0,83,0.00,CLR,SKC,0.00,WeatherDisplay:10.37,2013-04-30 02:23:00,
2013-04-29 22:28:00,43.1,38.0,28.47,South,180,0.0,0.0,82,0.00,CLR,SKC,0.00,WeatherDisplay:10.37,2013-04-30 02:28:00,
2013-04-29 22:33:00,43.1,38.0,28.47,South,180,0.0,0.0,82,0.00,CLR,SKC,0.00,WeatherDisplay:10.37,2013-04-30 02:33:00,
2013-04-29 22:38:00,43.1,37.6,28.47,South,180,0.0,0.0,81,0.00,CLR,SKC,0.00,WeatherDisplay:10.37,2013-04-30 02:38:00,
2013-04-29 22:43:00,43.1,37.6,28.47,South,180,0.0,0.0,81,0.00,CLR,SKC,0.00,WeatherDisplay:10.37,2013-04-30 02:43:00,
2013-04-29 22:48:00,42.1,36.7,28.47,SSE,157,0.0,0.0,81,0.00,CLR,SKC,0.00,WeatherDisplay:10.37,2013-04-30 02:48:00,
2013-04-29 22:53:00,43.1,37.3,28.47,SSE,157,0.0,0.0,80,0.00,CLR,SKC,0.00,WeatherDisplay:10.37,2013-04-30 02:53:00,
2013-04-29 22:58:00,42.1,35.7,28.47,SSE,157,0.0,0.0,78,0.00,CLR,SKC,0.00,WeatherDisplay:10.37,2013-04-30 02:58:00,
2013-04-29 23:03:00,42.1,34.7,28.46,SSE,157,0.0,0.0,75,0.00,CLR,SKC,0.00,WeatherDisplay:10.37,2013-04-30 03:03:00,
2013-04-29 23:08:00,42.1,31.5,28.46,SSE,157,0.0,0.0,66,0.00,CLR,SKC,0.00,WeatherDisplay:10.37,2013-04-30 03:08:00,
2013-04-29 23:13:00,42.1,29.6,28.46,SSE,157,0.0,0.0,61,0.00,CLR,SKC,0.00,WeatherDisplay:10.37,2013-04-30 03:13:00,
2013-04-29 23:18:00,42.1,26.6,28.46,SSE,157,0.0,0.0,54,0.00,CLR,SKC,0.00,WeatherDisplay:10.37,2013-04-30 03:18:00,
2013-04-29 23:23:00,41.1,16.8,28.46,SSE,157,0.0,0.0,37,0.00,CLR,SKC,0.00,WeatherDisplay:10.37,2013-04-30 03:23:00,
2013-04-29 23:28:00,41.1,12.7,28.46,SSE,157,0.0,0.0,31,0.00,CLR,SKC,0.00,WeatherDisplay:10.37,2013-04-30 03:28:00,
2013-04-29 23:33:00,41.1,12.7,28.46,SSE,157,0.0,0.0,31,0.00,CLR,SKC,0.00,WeatherDisplay:10.37,2013-04-30 03:33:00,
2013-04-29 23:38:00,41.1,8.7,28.46,SSE,157,0.0,0.0,26,0.00,CLR,SKC,0.00,WeatherDisplay:10.37,2013-04-30 03:38:00,
2013-04-29 23:43:00,41.1,8.7,28.46,SSE,157,0.0,0.0,26,0.00,CLR,SKC,0.00,WeatherDisplay:10.37,2013-04-30 03:43:00,
2013-04-29 23:48:00,40.1,6.1,28.46,SSE,157,0.0,0.0,24,0.00,CLR,SKC,0.00,WeatherDisplay:10.37,2013-04-30 03:48:00,
2013-04-29 23:53:00,41.1,8.7,28.46,SSE,157,0.0,0.0,26,0.00,CLR,SKC,0.00,WeatherDisplay:10.37,2013-04-30 03:53:00,
2013-04-29 23:58:00,40.1,4.2,28.46,SSE,157,0.0,0.0,22,0.00,CLR,SKC,0.00,WeatherDisplay:10.37,2013-04-30 03:58:00,